Location: Chamberlain Observatory
(39.0028°N, 90.1630°W)
Time: 00:17:17
(UTC-05:00)

Daily predictions for brighter satellites

Satellite Brightness Start Highest point End
(mag) Time Altitude Azimuth Time Altitude Azimuth Time Altitude Azimuth
Cosmos 2344 4.4 03:06:57 46° E 03:06:57 46° E 03:13:27 10° NE
SL-16 R/B 4.2 03:20:48 25° N 03:20:48 25° N 03:23:19 10° N
ATLAS 2AS CENTAUR R/B 4.0 03:21:15 36° N 03:21:15 36° N 03:26:42 10° NNE
Resurs 1-4 Rocket 4.0 03:31:58 10° NNE 03:34:08 25° NNE 03:34:08 25° NNE
Lacrosse 5 rocket 4.2 03:53:31 16° NNE 03:53:31 16° NNE 03:54:32 10° NNE
Cosmos 2333 Rocket 3.2 03:48:51 10° N 03:54:19 44° ENE 03:59:42 10° SE
Okean O Rocket 3.6 03:57:36 10° NE 04:00:23 27° ENE 04:00:23 27° ENE
USA 215 4.2 04:05:14 10° SE 04:08:45 34° SSE 04:08:45 34° SSE
Lacrosse 5 2.5 04:18:00 52° ENE 04:18:00 52° ENE 04:21:54 10° NE
CZ-4B R/B 4.2 04:13:17 10° NNE 04:18:24 41° E 04:20:48 27° SSE
Cosmos 2237 Rocket 2.7 04:13:40 10° NNW 04:19:14 57° ENE 04:24:44 10° SE
Meteor 2-8 Rocket 4.3 04:23:38 81° SSE 04:23:59 87° E 04:30:09 10° N
ATLAS 5 CENTAUR R/B 2.9 04:19:08 11° NNW 04:24:58 59° NE 04:31:21 10° SE
NOSS 3-2 (C) 4.1 04:19:21 10° NNW 04:26:56 73° NE 04:35:01 10° SE
ADEOS Rocket 4.2 04:22:12 10° NNE 04:28:56 44° E 04:34:59 10° SSE
ARIANE 5 R/B 4.4 04:28:39 10° N 04:30:10 18° NNW 04:30:10 18° NNW
Cosmos 1980 3.7 04:27:19 10° NNW 04:33:02 81° ENE 04:38:43 10° SSE
ADEOS II 3.9 04:29:58 10° NE 04:34:28 28° E 04:38:57 10° SSE
Meteor 1-13 Rocket 4.1 04:37:55 70° SSW 04:38:38 84° W 04:44:24 10° N
SL-16 R/B 3.7 04:33:30 10° N 04:38:45 36° ENE 04:43:56 10° SE
RESURS DK-1 2.7 04:46:00 61° NE 04:46:00 61° NE 04:49:30 10° NNE
Cosmos 2112 Rocket 4.1 04:40:20 10° NNW 04:45:39 73° ENE 04:50:53 10° SSE
Cosmos 1727 Rocket 3.9 04:46:01 48° SSW 04:47:50 74° W 04:54:10 10° N
Gbstr 26 Del rocket 4.4 04:45:46 45° W 04:48:02 62° SW 04:56:01 10° SSE
NOSS 3-4 (A) 3.5 04:48:16 54° W 04:49:18 61° NW 04:55:48 10° NNE
NOSS 3-4 (C) 3.5 04:48:21 54° W 04:49:24 62° NW 04:55:54 10° NNE
Cosmos 2227 Rocket 2.1 04:49:36 62° W 04:50:06 65° WNW 04:55:45 10° NNE
Cosmos 1680 Rocket 3.4 04:45:00 10° NNW 04:50:18 86° WSW 04:55:32 10° SSE
CZ-2D R/B 3.7 04:46:49 10° NNW 04:49:09 21° NNW 04:49:09 21° NNW
Cosmos 1346 Rocket 3.3 04:51:14 48° SE 04:51:57 57° E 04:55:53 10° NNE
Cosmos 2219 Rocket 4.3 05:02:32 11° S 05:02:32 11° S 05:02:47 10° S
Cosmos 2297 Rocket 2.1 04:57:49 48° SW 04:59:27 76° WNW 05:05:08 10° NNE
OTV 4 3.1 05:01:45 13° SE 05:01:45 13° SE 05:02:11 10° SE
Cosmos 1459 Rocket 4.3 04:58:10 10° N 05:04:33 70° E 05:10:49 10° SSE
Okean-O 3.6 05:00:34 10° NNE 05:04:52 47° E 05:09:08 10° S
Cosmos 2058 Rocket 3.6 05:03:48 10° N 05:08:07 59° E 05:12:24 10° SSE
Cosmos 2298 Rocket 4.2 05:05:20 15° S 05:09:39 71° ESE 05:14:57 10° NNE
IRS-1C Rocket 4.4 05:10:09 10° N 05:15:10 46° WNW 05:16:36 37° WSW
NOSS 0 Rocket 4.3 05:09:35 10° NW 05:15:18 39° WSW 05:21:00 10° S
Resurs 1-4 Rocket 4.0 05:13:25 10° NNW 05:15:12 15° NW 05:15:12 15° NW
CZ-4B DEB 4.2 05:11:35 10° N 05:17:00 63° WNW 05:20:39 21° SSW
Aureole 2 Rocket 4.0 05:15:27 10° N 05:18:40 35° ENE 05:21:36 10° SE
Thor Agena Rocket 3.5 05:13:56 10° SSE 05:19:14 81° WSW 05:24:34 10° NNW
Cosmos 2344 4.5 05:16:59 26° W 05:20:18 35° NW 05:28:25 10° NNE
Cosmos 2150 Rocket 4.0 05:19:06 10° SSW 05:24:11 84° ESE 05:29:21 10° NNE
USA 116 4.4 05:22:04 10° SSE 05:27:14 80° ENE 05:31:57 10° N
Cosmos 1025 Rocket 3.7 05:28:00 33° W 05:28:08 33° WNW 05:32:03 10° NNW
CZ-4B R/B 3.6 05:24:19 10° N 05:28:24 38° WNW 05:29:35 32° WSW
Meteor 1-15 Rocket 4.1 05:23:40 10° N 05:29:16 83° W 05:34:53 10° S
Cosmos 2082 4.4 05:28:45 28° W 05:30:24 33° WNW 05:35:28 10° N
Meteor 1-31 Rocket 3.6 05:29:22 10° NNE 05:33:11 52° E 05:37:01 10° S
Okean O Rocket 2.8 05:34:17 10° NNW 05:37:42 22° WNW 05:37:51 22° WNW
Cosmos 2333 Rocket 3.1 05:33:44 10° NW 05:38:15 25° WSW 05:42:44 10° SSW
Cosmos 2098 Rocket 3.2 05:34:38 10° N 05:38:34 78° E 05:43:35 10° S
Cosmos 1626 Rocket 4.0 05:35:10 10° S 05:39:30 63° E 05:43:49 10° NNE
NOSS 3-2 (A) 4.5 05:32:49 10° NW 05:39:38 36° WSW 05:46:49 10° S
Okean 2 3.8 05:39:28 19° SW 05:41:57 39° WNW 05:45:53 10° N
Cosmos 1606 Rocket 4.2 05:39:57 10° NNW 05:43:49 31° W 05:47:39 10° SSW
Feng Yun 1-1 Rocket 4.2 05:38:16 10° N 05:43:56 79° WNW 05:49:43 10° SSW
DELTA 2 R/B (1) 3.6 05:42:40 21° WSW 05:46:25 81° SSE 05:52:01 10° E
MOS 1 Rocket 3.5 05:41:45 10° NNE 05:46:35 84° ESE 05:51:42 10° S
Meteor 2-15 Rocket 4.4 05:43:31 10° S 05:49:35 86° W 05:55:42 10° N
COBE Rocket 3.8 05:46:09 10° N 05:50:57 89° WNW 05:55:37 10° SSW
Delta 2 Rocket 3.6 05:50:41 21° WSW 05:52:43 41° SSW 05:56:03 10° ESE
Cosmos 1515 3.8 05:48:58 10° S 05:52:47 78° E 05:56:37 10° N
Cosmos 1726 Rocket 4.4 05:51:04 10° NNW 05:54:50 28° W 05:58:33 10° SSW
Cosmos 1898 Rocket 3.8 05:50:04 10° SW 05:55:10 47° WNW 06:00:18 10° N
Cosmos 1666 3.7 05:52:14 10° NW 05:55:26 25° W 05:58:36 10° SW
Cosmos 2061 Rocket 4.3 05:50:53 10° NNW 05:56:52 47° W 06:02:54 10° SSW
Tiangong 1 2.0 05:55:30 18° WNW 05:57:23 38° N 06:00:16 10° ENE
CZ-3A R/B 3.4 05:54:09 10° NW 05:58:40 90° SSE 06:12:08 10° SE
CZ-4B R/B 4.2 05:54:24 10° NNW 05:58:43 25° WNW 06:02:41 12° WSW
Cosmos 2100 Rocket 4.4 05:54:19 10° NNW 06:00:01 39° W 06:05:47 10° SSW
Lacrosse 5 3.3 05:57:13 14° WNW 06:00:17 23° NNW 06:04:19 10° NNE
Cosmos 1802 Rocket 4.1 05:54:25 10° NNW 06:00:19 49° W 06:06:10 10° SSW
Cosmos 1602 Rocket 3.5 05:58:14 10° SSW 06:02:40 70° W 06:07:05 10° N
Cosmos 2237 Rocket 3.4 05:59:00 10° WNW 06:02:44 18° W 06:06:28 10° SW
Cosmos 192 4.3 06:01:06 10° NNW 06:06:04 87° WSW 06:10:58 10° SSE
Cosmos 2227 4.2 06:00:51 10° SSW 06:06:37 85° WNW 06:12:25 10° NNE
Cosmos 1340 3.6 06:04:43 10° S 06:08:25 53° E 06:12:08 10° NNE
SKYMED 2 4.1 06:04:37 10° SSE 06:08:55 65° ENE 06:13:13 10° N
Cosmos 1937 Rocket 3.7 06:04:06 10° SW 06:09:08 49° WNW 06:14:16 10° N
ATLAS 5 CENTAUR R/B 3.4 06:04:29 10° WNW 06:09:24 25° WSW 06:14:31 10° SSW
Cosmos 1725 Rocket 4.0 06:06:38 10° NNW 06:12:55 72° W 06:19:07 10° S
ADEOS Rocket 4.0 06:07:57 10° N 06:14:08 33° WNW 06:19:50 10° SW
ADEOS II 2.8 06:09:29 10° N 06:14:10 34° WNW 06:18:51 10° SW
NOSS 2-2 (D) 3.5 06:10:23 10° SW 06:14:26 70° NW 06:19:06 10° NNE
NOAA 6 4.0 06:09:26 10° N 06:14:39 75° WNW 06:19:48 10° SSW
Radarsat Rocket 4.2 06:08:27 10° NNE 06:15:15 88° ESE 06:21:18 10° SSW
CENTAUR R/B 3.1 06:08:10 10° NW 06:16:05 80° WSW 06:24:27 10° SSE
OE (NEXTSAT) 4.4 06:15:21 10° WNW 06:18:58 73° SSW 06:22:35 10° SE
USA 129 3.2 06:20:36 10° SW 06:21:58 16° W 06:23:17 10° NW
SL-16 R/B 2.9 06:17:50 10° NW 06:22:42 30° WSW 06:27:33 10° SSW
Centaur D-1A AC-35 4.3 06:21:38 10° SSW 06:23:48 15° S 06:26:06 10° SE
Cosmos 972 Rocket 4.3 06:18:43 10° SSW 06:24:04 63° WNW 06:30:08 10° N
Cosmos 2228 4.1 06:22:47 10° NW 06:26:19 24° W 06:29:50 10° SW
Cosmos 1812 Rocket 3.7 06:24:29 10° NNW 06:28:51 57° W 06:33:12 10° S
NOSS 2-2 (C) 3.8 06:25:52 10° SW 06:29:51 49° NW 06:34:27 10° NNE
Cosmos 1066 Rocket 4.2 06:25:07 10° SSW 06:30:42 76° W 06:36:30 10° N
OAO 2 Rocket 4.2 06:25:55 10° WSW 06:30:58 46° SSE 06:36:02 10° E
